CW5629 Weather Reports


time (UTC)temp
C
wind
direction
speed
KPH
gust
KPH
rain 1hr
cm
rain 24hr
cm
rain mn
cm
humidity
%
barometer
mb
20260505215115 11 91 0.0 0.0 0.00 0.00 0.00 71 1012.7
20260505214150 12 91 0.0 1.6 0.00 0.00 0.00 70 1012.7
20260505213143 12 91 0.0 0.0 0.00 0.00 0.00 69 1012.7
20260505212135 12 90 0.0 1.6 0.00 0.00 0.00 69 1012.7
20260505211127 12 94 0.0 4.8 0.00 0.00 0.00 68 1012.7
20260505210113 12 99 0.0 8.0 0.00 0.00 0.00 67 1012.6
20260505205125 12 98 0.0 1.6 0.00 0.00 0.00 68 1012.6
20260505204112 12 105 0.0 8.0 0.00 0.00 0.00 67 1012.5
20260505203125 12 97 0.0 1.6 0.00 0.00 0.00 67 1012.6
20260505202114 12 80 0.0 3.2 0.00 0.00 0.00 67 1012.5
20260505201127 12 100 0.0 0.0 0.00 0.00 0.00 68 1012.5
20260505200113 12 100 0.0 1.6 0.00 0.00 0.00 67 1012.4
20260505195123 12 86 0.0 4.8 0.00 0.00 0.00 68 1012.3
20260505194136 13 90 0.0 1.6 0.00 0.00 0.00 67 1012.2
20260505193128 13 68 0.0 1.6 0.00 0.00 0.00 66 1012.1
20260505192114 13 98 0.0 1.6 0.00 0.00 0.00 65 1012.0
20260505191125 13 98 0.0 4.8 0.00 0.00 0.00 65 1012.0
20260505190134 13 88 0.0 4.8 0.00 0.00 0.00 64 1011.9
20260505185123 13 96 0.0 1.6 0.00 0.00 0.00 64 1011.9
20260505184156 13 82 0.0 1.6 0.00 0.00 0.00 63 1011.9
20260505183122 13 97 0.0 3.2 0.00 0.00 0.00 63 1011.9
20260505182135 13 123 0.0 1.6 0.00 0.00 0.00 62 1011.9
20260505181149 14 94 0.0 3.2 0.00 0.00 0.00 62 1011.8
20260505180114 14 121 0.0 6.4 0.00 0.00 0.00 60 1011.8
20260505175127 15 255 0.0 3.2 0.00 0.00 0.00 60 1011.8
20260505174114 15 141 0.0 8.0 0.00 0.00 0.00 59 1011.8
20260505173128 15 99 0.0 1.6 0.00 0.00 0.00 59 1011.8
20260505172140 16 104 1.6 4.8 0.00 0.00 0.00 58 1011.8
20260505171129 16 127 0.0 3.2 0.00 0.00 0.00 57 1011.9
20260505170114 16 111 0.0 4.8 0.00 0.00 0.00 59 1011.9
20260505165126 15 88 0.0 4.8 0.00 0.00 0.00 59 1011.9
20260505164112 15 117 0.0 3.2 0.00 0.00 0.00 59 1011.9
20260505163124 16 95 0.0 4.8 0.00 0.00 0.00 58 1011.9
20260505162136 16 98 0.0 3.2 0.00 0.00 0.00 59 1011.9
20260505161142 16 84 0.0 1.6 0.00 0.00 0.00 59 1011.9
20260505160114 16 115 0.0 6.4 0.00 0.00 0.00 57 1011.9
20260505153123 16 83 0.0 4.8 0.00 0.00 0.00 59 1011.9
20260505152129 16 105 1.6 6.4 0.00 0.00 0.00 58 1011.9
20260505151123 16 78 0.0 8.0 0.00 0.00 0.00 59 1011.9
20260505150137 16 108 0.0 3.2 0.00 0.00 0.00 58 1012.1
20260505140115 17 105 0.0 1.6 0.00 0.00 0.00 58 1012.3
20260505130118 18 72 0.0 4.8 0.00 0.00 0.00 54 1012.5
20260505124139 18 86 1.6 4.8 0.00 0.00 0.00 52 1012.6
20260505123132 18 108 1.6 6.4 0.00 0.00 0.00 51 1012.7
20260505122119 18 119 0.0 8.0 0.00 0.00 0.00 55 1012.7
20260505121113 17 84 0.0 4.8 0.00 0.00 0.00 56 1012.6
20260505120124 17 90 0.0 8.0 0.00 0.00 0.00 55 1012.6
20260505115157 17 105 0.0 4.8 0.00 0.00 0.00 55 1012.6
20260505114122 18 70 1.6 8.0 0.00 0.00 0.00 56 1012.6
20260505113135 17 292 0.0 4.8 0.00 0.00 0.00 58 1012.6
20260505112120 17 19 1.6 9.7 0.00 0.00 0.00 57 1012.8
20260505111117 17 219 1.6 8.0 0.00 0.00 0.00 59 1012.8
20260505110123 17 104 1.6 8.0 0.00 0.00 0.00 60 1012.9
20260505102125 15 91 0.0 4.8 0.00 0.00 0.00 67 1013.3
20260505101132 14 77 0.0 4.8 0.00 0.00 0.00 69 1013.4
20260505100124 14 78 0.0 3.2 0.00 0.00 0.00 72 1013.3
20260505095113 14 96 0.0 3.2 0.00 0.00 0.00 71 1013.3
20260505094120 14 95 0.0 6.4 0.00 0.00 0.00 74 1013.2
20260505093113 14 100 0.0 4.8 0.00 0.00 0.00 77 1013.2
20260505092121 13 82 0.0 1.6 0.00 0.00 0.00 80 1013.2
20260505091113 13 82 0.0 3.2 0.00 0.00 0.00 82 1013.3
20260505090125 12 98 0.0 3.2 0.00 0.00 0.00 84 1013.3
20260505085111 12 110 0.0 1.6 0.00 0.00 0.00 85 1013.4
20260505084121 11 113 0.0 1.6 0.00 0.00 0.00 85 1013.4
20260505083134 11 105 0.0 4.8 0.00 0.00 0.00 86 1013.4
20260505082124 11 108 0.0 3.2 0.00 0.00 0.00 86 1013.3
20260505081115 11 96 0.0 1.6 0.00 0.00 0.00 85 1013.4
20260505080149 11 94 0.0 1.6 0.00 0.00 0.00 85 1013.4
20260505075114 12 68 0.0 1.6 0.00 0.00 0.00 84 1013.3
20260505074127 12 108 0.0 1.6 0.00 0.00 0.00 84 1013.4
20260505073112 12 75 0.0 4.8 0.00 0.00 0.00 84 1013.3
20260505072124 12 109 0.0 4.8 0.00 0.00 0.00 85 1013.3
20260505071110 11 92 0.0 3.2 0.00 0.00 0.00 87 1013.3
20260505070150 11 141 0.0 3.2 0.00 0.00 0.00 88 1013.3
20260505065115 11 96 0.0 3.2 0.00 0.00 0.00 89 1013.4
20260505064128 11 154 0.0 3.2 0.00 0.00 0.00 89 1013.4
20260505063114 11 140 0.0 1.6 0.00 0.00 0.00 90 1013.3
20260505062127 11 105 0.0 1.6 0.00 0.00 0.00 90 1013.3
20260505061113 11 105 0.0 1.6 0.00 0.00 0.00 91 1013.2
20260505060127 11 76 0.0 3.2 0.00 0.00 0.00 91 1013.2
20260505055113 11 134 0.0 3.2 0.00 0.00 0.00 91 1013.2
20260505054142 11 85 0.0 1.6 0.00 0.00 0.00 91 1013.2
20260505053133 11 73 0.0 3.2 0.00 0.00 0.00 91 1013.2
20260505052123 11 103 0.0 1.6 0.00 0.00 0.00 91 1013.1
20260505051116 11 101 0.0 3.2 0.00 0.00 0.00 91 1013.1
20260505050122 11 110 0.0 1.6 0.00 0.00 0.00 91 1013.0
20260505041136 11 110 0.0 0.0 0.00 0.00 0.00 91 1013.0
20260505040121 11 109 0.0 0.0 0.00 0.00 0.00 92 1013.0
20260505035114 11 109 0.0 1.6 0.00 0.00 0.00 92 1013.0
20260505034119 11 112 0.0 0.0 0.00 0.00 0.00 92 1012.9
20260505033110 11 100 0.0 1.6 0.00 0.00 0.00 92 1012.9
20260505032122 11 96 0.0 0.0 0.00 0.00 0.00 91 1013.0
20260505031135 11 86 0.0 0.0 0.00 0.00 0.00 91 1013.0
20260505030119 11 73 0.0 0.0 0.00 0.00 0.00 91 1012.9
20260505025132 11 103 0.0 1.6 0.00 0.00 0.00 91 1012.9
20260505024121 11 103 0.0 0.0 0.00 0.00 0.00 91 1012.9
20260505023115 11 103 0.0 1.6 0.00 0.00 0.00 92 1012.9
20260505022121 11 100 0.0 1.6 0.00 0.00 0.00 92 1012.9
20260505021134 11 96 0.0 1.6 0.00 0.00 0.00 92 1013.0
20260505020123 11 91 0.0 1.6 0.00 0.00 0.00 92 1013.1
20260505015136 10 94 0.0 1.6 0.00 0.00 0.00 91 1013.1
20260505014124 10 94 0.0 0.0 0.00 0.00 0.00 90 1013.2
20260505013110 11 94 0.0 0.0 0.00 0.00 0.00 90 1013.2
20260505012143 11 94 0.0 0.0 0.00 0.00 0.00 89 1013.2
20260505011117 11 94 0.0 0.0 0.00 0.00 0.00 89 1013.3
20260505010149 11 94 0.0 1.6 0.00 0.00 0.00 89 1013.3
20260505005114 12 94 0.0 1.6 0.00 0.00 0.00 88 1013.4
20260505004123 12 116 0.0 0.0 0.00 0.00 0.00 89 1013.4
20260505003135 12 116 0.0 1.6 0.00 0.00 0.00 89 1013.5
20260505002121 12 116 0.0 0.0 0.00 0.00 0.00 89 1013.6
20260505001113 12 116 0.0 1.6 0.00 0.00 0.00 89 1013.7
20260505000127 12 117 0.0 0.0 0.00 0.00 0.00 89 1013.8
20260504235141 12 117 0.0 1.6 0.00 0.00 0.00 89 1013.8
20260504234130 12 93 0.0 1.6 0.00 0.00 0.00 89 1013.8
20260504233114 12 84 0.0 1.6 0.00 0.00 0.00 89 1013.7
20260504232143 12 75 0.0 4.8 0.00 0.00 0.00 89 1013.6
20260504231120 12 92 0.0 1.6 0.00 0.00 0.00 89 1013.5
20260504230132 12 97 0.0 3.2 0.00 0.00 0.00 90 1013.5
20260504225118 12 82 0.0 1.6 0.00 0.00 0.00 91 1013.5
20260504224131 12 118 0.0 0.0 0.00 0.00 0.00 91 1013.6
20260504223138 12 91 0.0 0.0 0.00 0.00 0.00 91 1013.7
20260504222129 12 91 0.0 0.0 0.00 0.00 0.00 91 1013.7
20260504221121 12 91 0.0 1.6 0.00 0.00 0.00 91 1013.7
20260504220123 12 85 0.0 0.0 0.00 0.00 0.00 89 1013.7